Location: Olomouc
(49.5830°N, 17.2500°E)
Time: 04:16:01
(UTC+02:00)

ISS - Pass Details

Date: 26 May 2021
Orbit: 417 x 422 km, 51.6° (Epoch: 13 June)

Event Time Altitude Azimuth Distance (km) Brightness Sun altitude
Rises 23:01:58 0° 288° (WNW) 2,368 0.7 -15.3°
Reaches altitude 10° 23:04:10 10° 279° (W) 1,502 -0.5 -15.5°
Maximum altitude 23:07:17 35° 212° (SSW) 697 -3.0 -15.7°
Enters shadow 23:07:47 33° 191° (S) 730 -3.0 -15.7°
